GW4718 Weather Reports


time (UTC)temp
F
wind
direction
speed
knots
gust
knots
rain 1hr
in
rain 24hr
in
rain mn
in
humidity
%
barometer
mb
20260831230806 76 175 0.0 1.7 0.00 0.00 0.00 83 1023.4
20260831230301 76 101 1.7 2.6 0.00 0.00 0.00 83 1023.5
20260831225800 77 114 1.7 1.7 0.00 0.00 0.00 84 1023.5
20260831225255 77 79 2.6 2.6 0.00 0.00 0.00 75 1023.3
20260831224750 77 127 0.0 0.0 0.00 0.00 0.00 82 1023.4
20260831224246 78 109 0.0 0.0 0.00 0.00 0.00 78 1023.5
20260831223740 79 45 0.9 1.7 0.00 0.00 0.00 70 1023.4
20260831223237 78 158 0.0 3.5 0.00 0.00 0.00 71 1023.4
20260831222733 79 116 2.6 2.6 0.00 0.00 0.00 72 1023.5
20260831222228 80 104 0.9 0.9 0.00 0.00 0.00 76 1023.6
20260831221724 80 115 0.0 0.9 0.00 0.00 0.00 69 1023.3
20260831221219 82 132 0.0 0.9 0.00 0.00 0.00 72 1023.4
20260831220714 83 156 0.0 1.7 0.00 0.00 0.00 63 1023.5
20260831220209 84 132 0.9 3.5 0.00 0.00 0.00 59 1023.3
20260831215704 87 254 1.7 2.6 0.00 0.00 0.00 60 1023.4
20260831215200 87 271 0.9 0.9 0.00 0.00 0.00 55 1023.5
20260831214657 87 281 0.0 0.0 0.00 0.00 0.00 52 1023.5
20260831214153 86 247 0.0 0.9 0.00 0.00 0.00 58 1023.5
20260831213648 86 159 2.6 2.6 0.00 0.00 0.00 58 1023.7
20260831213143 86 175 2.6 3.5 0.00 0.00 0.00 57 1023.9
20260831212640 86 191 2.6 5.2 0.00 0.00 0.00 61 1024.0
20260831212137 85 178 3.5 3.5 0.00 0.00 0.00 61 1023.5
20260831211635 87 280 1.7 2.6 0.00 0.00 0.00 58 1023.7
20260831211130 87 162 2.6 3.5 0.00 0.00 0.00 54 1023.5
20260831210625 86 191 0.9 1.7 0.00 0.00 0.00 56 1023.7
20260831210121 86 188 1.7 2.6 0.00 0.00 0.00 58 1023.9
20260831205620 84 271 0.9 1.7 0.00 0.00 0.00 59 1023.7
20260831205116 83 99 2.6 2.6 0.00 0.00 0.00 61 1023.9
20260831204616 84 83 2.6 3.5 0.00 0.00 0.00 60 1024.0
20260831204114 84 295 3.5 5.2 0.00 0.00 0.00 63 1023.7
20260831203609 84 230 1.7 2.6 0.00 0.00 0.00 63 1024.1
20260831203108 82 79 1.7 2.6 0.00 0.00 0.00 68 1024.1
20260831202607 82 165 1.7 3.5 0.00 0.00 0.00 65 1024.1
20260831202102 83 172 2.6 2.6 0.00 0.00 0.00 62 1024.1
20260831201600 83 171 0.9 0.9 0.00 0.00 0.00 63 1024.2
20260831201056 84 51 0.9 1.7 0.00 0.00 0.00 68 1024.0
20260831200551 82 40 0.9 2.6 0.00 0.00 0.00 68 1024.3
20260831200046 81 54 3.5 3.5 0.00 0.00 0.00 72 1024.0
20260831195542 82 48 0.9 1.7 0.00 0.00 0.00 73 1024.0
20260831195036 81 108 0.0 0.0 0.00 0.00 0.00 66 1024.0
20260831194526 81 97 1.7 1.7 0.00 0.00 0.00 69 1024.0
20260831194026 81 66 0.9 1.7 0.00 0.00 0.00 72 1024.2
20260831193522 82 52 0.9 2.6 0.00 0.00 0.00 69 1024.5
20260831193016 82 219 1.7 1.7 0.00 0.00 0.00 66 1024.5
20260831192506 81 206 1.7 2.6 0.00 0.00 0.00 73 1024.6
20260831192001 81 195 0.9 0.9 0.00 0.00 0.00 71 1024.5
20260831191457 81 217 1.7 2.6 0.00 0.00 0.00 73 1024.5
20260831190953 81 187 0.9 2.6 0.00 0.00 0.00 70 1024.6
20260831190448 81 154 0.0 0.9 0.00 0.00 0.00 70 1024.4
20260831185946 81 140 0.0 1.7 0.00 0.00 0.00 70 1024.6
20260831185443 81 128 0.9 1.7 0.00 0.00 0.00 70 1024.7
20260831184942 81 178 1.7 2.6 0.00 0.00 0.00 72 1024.7
20260831184437 81 103 0.9 2.6 0.00 0.00 0.00 72 1024.7
20260831183932 82 233 0.9 1.7 0.00 0.00 0.00 71 1024.7
20260831183432 81 163 0.0 1.7 0.00 0.00 0.00 72 1024.7
20260831182931 80 295 0.0 1.7 0.00 0.00 0.00 72 1024.7
20260831182426 79 336 0.0 0.9 0.00 0.00 0.00 74 1024.9
20260831181922 79 163 0.0 0.0 0.00 0.00 0.00 78 1024.7
20260831181417 78 112 0.9 6.1 0.00 0.00 0.00 73 1024.7
20260831180912 78 146 0.9 0.9 0.00 0.00 0.00 80 1025.0
20260831180406 78 52 0.9 1.7 0.00 0.00 0.00 81 1024.9
20260831175905 78 109 1.7 2.6 0.00 0.00 0.00 81 1024.9
20260831175402 78 95 1.7 2.6 0.00 0.00 0.00 81 1024.8
20260831174858 78 107 0.0 1.7 0.00 0.00 0.00 80 1025.2
20260831174353 78 86 0.0 0.9 0.00 0.00 0.00 81 1025.0
20260831173852 77 110 0.9 1.7 0.00 0.00 0.00 83 1025.1
20260831173346 78 56 1.7 2.6 0.00 0.00 0.00 78 1025.0
20260831172841 78 55 0.0 1.7 0.00 0.00 0.00 78 1024.9
20260831172337 77 118 3.5 3.5 0.00 0.00 0.00 80 1024.9
20260831171836 78 284 0.0 0.0 0.00 0.00 0.00 83 1025.2
20260831171333 78 50 0.0 0.0 0.00 0.00 0.00 83 1025.0
20260831170830 78 5 0.0 0.9 0.00 0.00 0.00 85 1024.9
20260831170326 78 6 0.0 0.0 0.00 0.00 0.00 82 1024.8
20260831165822 78 14 0.0 0.0 0.00 0.00 0.00 81 1024.9
20260831165318 78 325 0.9 0.9 0.00 0.00 0.00 81 1025.0
20260831164814 78 73 0.0 0.9 0.00 0.00 0.00 83 1025.0
20260831164310 78 20 0.0 1.7 0.00 0.00 0.00 83 1025.1
20260831163805 78 246 0.0 1.7 0.00 0.00 0.00 83 1025.0
20260831163301 78 290 1.7 1.7 0.00 0.00 0.00 82 1025.2
20260831162759 77 33 0.0 0.0 0.00 0.00 0.00 82 1025.2
20260831162254 76 63 1.7 1.7 0.00 0.00 0.00 85 1025.3
20260831161748 77 63 0.9 1.7 0.00 0.00 0.00 83 1025.4
20260831161244 77 267 0.9 1.7 0.00 0.00 0.00 82 1025.2
20260831160744 76 149 0.0 0.0 0.00 0.00 0.00 84 1025.1
20260831160233 76 130 0.0 0.0 0.00 0.00 0.00 83 1025.4
20260831155733 77 90 1.7 1.7 0.00 0.00 0.00 83 1025.2
20260831155229 77 240 0.0 0.9 0.00 0.00 0.00 83 1025.3
20260831154724 77 236 0.0 0.0 0.00 0.00 0.00 84 1025.2
20260831154221 76 74 0.0 0.9 0.00 0.00 0.00 82 1025.1
20260831153719 76 162 0.0 0.9 0.00 0.00 0.00 83 1025.2
20260831153215 75 289 0.0 0.0 0.00 0.00 0.00 84 1025.2
20260831152711 74 247 0.0 0.9 0.00 0.00 0.00 84 1025.3
20260831152207 74 292 0.0 0.9 0.00 0.00 0.00 86 1025.5
20260831151706 74 196 0.0 0.0 0.00 0.00 0.00 85 1025.2
20260831151201 74 202 0.0 0.9 0.00 0.00 0.00 85 1025.8
20260831150656 74 250 0.9 0.9 0.00 0.00 0.00 86 1025.7
20260831150151 74 273 0.0 0.9 0.00 0.00 0.00 85 1025.7
20260831145650 74 125 0.0 0.0 0.00 0.00 0.00 86 1025.7
20260831145147 73 199 0.0 1.7 0.00 0.00 0.00 87 1025.7
20260831144642 74 283 0.0 0.9 0.00 0.00 0.00 85 1025.4
20260831144138 74 196 0.0 0.0 0.00 0.00 0.00 84 1025.5
20260831143637 73 133 0.0 0.0 0.00 0.00 0.00 84 1025.7
20260831143133 73 109 0.0 0.0 0.00 0.00 0.00 84 1025.4
20260831142630 73 154 0.0 0.0 0.00 0.00 0.00 86 1025.3
20260831142129 73 83 0.0 0.9 0.00 0.00 0.00 86 1025.3
20260831141628 72 55 0.9 1.7 0.00 0.00 0.00 87 1025.2
20260831141124 72 70 0.0 0.0 0.00 0.00 0.00 85 1025.5
20260831140623 72 212 0.0 0.9 0.00 0.00 0.00 86 1025.3
20260831140118 71 210 0.0 1.7 0.00 0.00 0.00 87 1025.3
20260831135615 71 197 0.0 1.7 0.00 0.00 0.00 88 1025.7
20260831135111 71 280 0.0 0.9 0.00 0.00 0.00 87 1025.4
20260831134607 71 237 0.0 2.6 0.00 0.00 0.00 89 1025.8
20260831134102 70 221 0.9 1.7 0.00 0.00 0.00 89 1025.5
20260831133601 70 220 0.9 2.6 0.00 0.00 0.00 88 1025.8
20260831133056 70 247 2.6 2.6 0.00 0.00 0.00 89 1025.8
20260831132553 70 244 1.7 2.6 0.00 0.00 0.00 90 1025.5
20260831132052 69 217 0.0 1.7 0.00 0.00 0.00 90 1025.7
20260831131546 69 53 0.0 1.7 0.00 0.00 0.00 92 1025.4
20260831131043 69 134 0.0 1.7 0.00 0.00 0.00 91 1025.4
20260831130538 69 246 1.7 2.6 0.00 0.00 0.00 92 1025.4
20260831130033 68 257 1.7 2.6 0.00 0.00 0.00 92 1025.7
20260831125531 68 183 0.0 0.9 0.00 0.00 0.00 93 1025.7
20260831125027 68 181 0.0 0.0 0.00 0.00 0.00 93 1025.5
20260831124524 68 221 0.9 1.7 0.00 0.00 0.00 92 1025.8
20260831124020 67 196 0.9 2.6 0.00 0.00 0.00 95 1025.5
20260831123518 67 230 0.9 3.5 0.00 0.00 0.00 96 1025.5
20260831123013 66 273 0.9 2.6 0.00 0.00 0.00 96 1025.8
20260831122508 65 264 1.7 1.7 0.00 0.00 0.00 98 1025.7
20260831122003 65 157 0.0 1.7 0.00 0.00 0.00 99 1025.8
20260831121458 64 72 0.0 0.0 0.00 0.00 0.00 99 1025.4
20260831120954 63 119 0.0 0.0 0.00 0.00 0.00 99 1025.5
20260831120453 63 186 0.9 0.9 0.00 0.00 0.00 99 1025.7
20260831115949 62 235 0.0 1.7 0.00 0.00 0.00 99 1025.8
20260831115445 62 231 0.0 1.7 0.00 0.00 0.00 99 1025.5
20260831114945 62 220 1.7 2.6 0.00 0.00 0.00 99 1025.5
20260831114443 62 226 1.7 2.6 0.00 0.00 0.00 99 1025.4
20260831113939 62 127 0.0 0.0 0.00 0.00 0.00 99 1025.7
20260831113438 61 104 0.0 0.0 0.00 0.00 0.00 99 1025.5
20260831112934 61 118 0.0 0.0 0.00 0.00 0.00 99 1025.4
20260831112434 61 84 0.0 0.0 0.00 0.00 0.00 99 1025.4
20260831111929 61 81 0.0 0.0 0.00 0.00 0.00 99 1025.5
20260831111425 61 187 0.0 0.0 0.00 0.00 0.00 99 1025.4
20260831110921 61 81 0.0 0.0 0.00 0.00 0.00 99 1025.3
20260831110415 61 27 0.0 0.0 0.00 0.00 0.00 99 1025.2
20260831105914 61 26 0.0 0.0 0.00 0.00 0.00 99 1025.2
20260831105409 61 26 0.0 0.0 0.00 0.00 0.00 99 1025.3
20260831104904 61 26 0.0 0.0 0.00 0.00 0.00 99 1025.3
20260831104400 61 26 0.0 0.0 0.00 0.00 0.00 99 1025.2
20260831103855 61 26 0.0 0.0 0.00 0.00 0.00 99 1025.1
20260831103351 61 26 0.0 0.0 0.00 0.00 0.00 99 1025.1
20260831102846 61 26 0.0 0.0 0.00 0.00 0.00 99 1025.2
20260831102341 61 26 0.0 0.0 0.00 0.00 0.00 99 1025.0
20260831101837 61 358 0.0 0.0 0.00 0.00 0.00 99 1025.0
20260831101332 62 47 0.0 0.0 0.00 0.00 0.00 99 1024.9
20260831100829 62 47 0.0 0.0 0.00 0.00 0.00 99 1024.8
20260831100324 62 47 0.0 0.0 0.00 0.00 0.00 99 1024.9
20260831095824 61 43 0.0 0.0 0.00 0.00 0.00 99 1024.9
20260831095318 62 43 0.0 0.0 0.00 0.00 0.00 99 1024.9
20260831094813 61 249 0.0 0.9 0.00 0.00 0.00 99 1025.0
20260831094308 61 187 0.0 0.0 0.00 0.00 0.00 99 1024.8
20260831093804 61 182 0.0 0.0 0.00 0.00 0.00 99 1025.0
20260831093304 61 207 0.0 0.0 0.00 0.00 0.00 99 1024.7
20260831092801 62 147 0.0 0.0 0.00 0.00 0.00 99 1024.9
20260831092256 62 147 0.0 0.0 0.00 0.00 0.00 99 1024.9
20260831091755 62 113 0.0 0.0 0.00 0.00 0.00 99 1024.7
20260831091251 62 113 0.0 0.0 0.00 0.00 0.00 99 1024.8
20260831090746 63 114 0.0 0.0 0.00 0.00 0.00 99 1024.7
20260831090242 62 114 0.0 0.0 0.00 0.00 0.00 99 1024.8
20260831085738 63 113 0.0 0.0 0.00 0.00 0.00 99 1024.7
20260831085233 63 113 0.0 0.0 0.00 0.00 0.00 99 1024.8
20260831084728 63 115 0.0 0.0 0.00 0.00 0.00 99 1024.7
20260831084224 63 116 0.0 0.0 0.00 0.00 0.00 99 1024.8
20260831083720 63 110 0.0 0.0 0.00 0.00 0.00 99 1024.7
20260831083216 63 110 0.0 0.0 0.00 0.00 0.00 99 1024.5
20260831082714 63 88 0.0 0.0 0.00 0.00 0.00 99 1024.7
20260831082204 63 91 0.0 0.0 0.00 0.00 0.00 99 1024.5
20260831081659 64 100 0.0 0.0 0.00 0.00 0.00 99 1024.4
20260831081154 64 107 0.0 0.0 0.00 0.00 0.00 99 1024.4
20260831080650 64 112 0.0 0.0 0.00 0.00 0.00 99 1024.5
20260831080150 64 341 0.0 0.9 0.00 0.00 0.00 99 1024.4
20260831075646 64 348 0.9 1.7 0.00 0.00 0.00 98 1024.3
20260831075141 64 175 0.0 3.5 0.00 0.00 0.00 98 1024.3
20260831074640 64 126 0.0 1.7 0.00 0.00 0.00 99 1024.4
20260831074135 64 229 0.9 1.7 0.00 0.00 0.00 98 1024.4
20260831073630 64 176 0.0 0.9 0.00 0.00 0.00 98 1024.3
20260831073129 64 175 0.9 1.7 0.00 0.00 0.00 99 1024.0
20260831072625 64 113 0.0 0.0 0.00 0.00 0.00 98 1024.1
20260831072122 64 109 0.0 0.9 0.00 0.00 0.00 98 1024.1
20260831071620 64 204 0.9 1.7 0.00 0.00 0.00 98 1024.2
20260831071115 64 186 0.9 1.7 0.00 0.00 0.00 98 1024.3
20260831070615 65 223 0.0 0.9 0.00 0.00 0.00 98 1024.4
20260831070109 65 229 0.0 2.6 0.00 0.00 0.00 97 1024.3
20260831065608 65 253 1.7 1.7 0.00 0.00 0.00 97 1024.2
20260831065102 65 220 1.7 3.5 0.00 0.00 0.00 97 1024.5
20260831064557 65 216 1.7 2.6 0.00 0.00 0.00 96 1024.4
20260831064052 65 160 1.7 3.5 0.00 0.00 0.00 97 1024.5
20260831063548 65 227 2.6 2.6 0.00 0.00 0.00 97 1024.5
20260831063048 65 235 0.0 1.7 0.00 0.00 0.00 97 1024.3
20260831062543 65 248 0.0 0.0 0.00 0.00 0.00 97 1024.4
20260831062042 65 289 0.0 0.9 0.00 0.00 0.00 97 1024.5
20260831061540 65 106 0.0 0.0 0.00 0.00 0.00 97 1024.3
20260831061038 66 105 0.0 0.0 0.00 0.00 0.00 97 1024.6
20260831060537 66 191 0.0 0.0 0.00 0.00 0.00 97 1024.8
20260831060028 66 172 0.0 0.0 0.00 0.00 0.00 97 1024.5
20260831055522 66 220 0.0 0.0 0.00 0.00 0.00 96 1024.8
20260831055018 66 128 0.0 0.0 0.00 0.00 0.00 96 1024.8
20260831054517 66 256 0.0 0.0 0.00 0.00 0.00 96 1024.9
20260831054016 66 105 0.0 0.0 0.00 0.00 0.00 96 1024.8
20260831053515 66 232 0.9 1.7 0.00 0.00 0.00 96 1024.9
20260831053010 66 245 0.9 2.6 0.00 0.00 0.00 95 1025.0
20260831052509 66 176 0.0 0.0 0.00 0.00 0.00 96 1024.9
20260831052008 66 132 0.0 0.9 0.00 0.00 0.00 96 1024.9
20260831051506 66 47 0.0 0.9 0.00 0.00 0.00 96 1025.0
20260831051001 66 352 0.0 0.0 0.00 0.00 0.00 96 1025.1
20260831050500 66 21 0.0 0.9 0.00 0.00 0.00 96 1025.2
20260831045959 67 337 0.0 0.0 0.00 0.00 0.00 95 1025.1
20260831045458 67 61 0.0 0.0 0.00 0.00 0.00 95 1025.1
20260831044954 67 61 0.0 0.0 0.00 0.00 0.00 94 1025.0
20260831044449 67 84 0.0 1.7 0.00 0.00 0.00 93 1024.8
20260831043945 67 227 0.9 1.7 0.00 0.00 0.00 93 1024.9
20260831043444 67 199 0.9 1.7 0.00 0.00 0.00 93 1025.2
20260831042940 67 260 1.7 2.6 0.00 0.00 0.00 93 1025.1
20260831042439 67 230 2.6 5.2 0.00 0.00 0.00 93 1025.2
20260831041939 67 278 0.9 0.9 0.00 0.00 0.00 94 1025.2
20260831041439 67 242 1.7 3.5 0.00 0.00 0.00 94 1025.1
20260831040934 67 196 0.0 0.0 0.00 0.00 0.00 94 1025.3
20260831040429 67 273 1.7 2.6 0.00 0.00 0.00 94 1025.4
20260831035926 67 175 1.7 3.5 0.00 0.01 0.01 94 1025.4
20260831035420 66 210 1.7 2.6 0.00 0.01 0.01 95 1025.2
20260831034921 65 228 2.6 3.5 0.00 0.01 0.01 96 1025.1
20260831034416 65 215 0.0 0.0 0.00 0.01 0.01 98 1025.3
20260831033911 64 289 0.9 1.7 0.00 0.01 0.01 98 1025.2
20260831033406 64 136 0.0 0.0 0.00 0.01 0.01 98 1025.2
20260831032902 65 189 0.0 0.0 0.00 0.01 0.01 98 1025.1
20260831032401 65 145 0.0 0.0 0.00 0.01 0.01 97 1025.2
20260831031857 65 137 0.0 0.0 0.00 0.01 0.01 97 1025.2
20260831031356 65 174 0.0 0.0 0.00 0.01 0.01 97 1025.1
20260831030851 65 132 0.0 0.0 0.00 0.01 0.01 97 1025.2
20260831030349 65 124 0.0 0.0 0.00 0.01 0.01 97 1025.2
20260831025843 65 116 0.0 0.0 0.00 0.01 0.01 97 1025.4
20260831025343 66 243 0.0 0.0 0.00 0.01 0.01 97 1025.2
20260831024839 66 187 0.0 0.0 0.00 0.01 0.01 96 1025.3
20260831024338 66 81 0.0 0.0 0.00 0.01 0.01 96 1025.1
20260831023837 66 83 0.0 0.9 0.00 0.01 0.01 96 1025.3
20260831023335 66 149 0.0 0.0 0.00 0.01 0.01 96 1025.2
20260831022831 66 123 0.0 0.0 0.00 0.01 0.01 96 1025.3
20260831022330 66 183 0.0 0.0 0.00 0.01 0.01 95 1025.3
20260831021825 67 203 0.9 1.7 0.00 0.01 0.01 94 1025.2
20260831021324 67 228 1.7 2.6 0.00 0.01 0.01 94 1025.2
20260831020821 67 166 0.0 0.9 0.00 0.01 0.01 95 1025.3
20260831020320 67 113 0.0 0.9 0.00 0.01 0.01 96 1025.1
20260831015816 67 113 0.0 0.0 0.00 0.01 0.01 95 1025.5
20260831015311 67 113 0.0 0.0 0.00 0.01 0.01 95 1025.4
20260831014806 67 113 0.0 0.9 0.00 0.01 0.01 94 1025.4
20260831014301 66 89 0.0 0.0 0.00 0.01 0.01 96 1025.7
20260831013757 66 16 0.0 0.0 0.00 0.01 0.01 96 1025.5
20260831013256 66 248 0.0 0.0 0.00 0.01 0.01 95 1025.5
20260831012751 66 150 0.0 0.0 0.00 0.01 0.01 95 1025.5
20260831012247 67 216 0.0 0.0 0.00 0.01 0.01 95 1025.4
20260831011746 67 72 0.0 0.9 0.00 0.01 0.01 94 1025.3
20260831011242 67 84 0.9 0.9 0.00 0.01 0.01 95 1025.3
20260831010737 67 239 0.0 0.9 0.00 0.01 0.01 93 1025.2
20260831010236 68 144 0.0 0.9 0.00 0.01 0.01 92 1025.0
20260831005732 67 129 0.0 0.9 0.00 0.01 0.01 94 1025.1
20260831005227 67 159 0.0 0.0 0.00 0.01 0.01 93 1025.1
20260831004722 67 159 0.0 0.0 0.00 0.01 0.01 93 1025.0
20260831004219 68 176 0.0 0.9 0.00 0.01 0.01 92 1024.7
20260831003714 68 257 0.0 0.9 0.00 0.01 0.01 91 1024.7
20260831003211 69 122 0.0 0.0 0.00 0.01 0.01 91 1024.5
20260831002710 69 121 0.0 0.0 0.00 0.01 0.01 90 1024.4
20260831002209 69 229 0.0 0.9 0.00 0.01 0.01 91 1024.4
20260831001706 69 120 0.0 1.7 0.00 0.01 0.01 89 1024.2
20260831001206 69 101 0.0 1.7 0.00 0.01 0.01 89 1024.2
20260831000702 70 145 1.7 1.7 0.00 0.01 0.01 90 1024.1
20260831000158 70 73 0.0 0.0 0.00 0.01 0.01 87 1023.9
20260830235656 71 87 0.9 0.9 0.00 0.01 0.01 87 1023.7
20260830235152 71 133 0.0 0.0 0.00 0.01 0.01 86 1023.7
20260830234646 72 65 0.0 0.9 0.00 0.01 0.01 85 1023.7
20260830234142 73 170 0.0 0.0 0.00 0.01 0.01 82 1023.9
20260830233637 74 191 0.0 0.0 0.00 0.01 0.01 80 1023.6
20260830233133 76 191 0.0 1.7 0.00 0.01 0.01 76 1023.9
20260830232629 76 115 1.7 2.6 0.00 0.01 0.01 68 1023.7
20260830232125 76 191 0.0 1.7 0.00 0.01 0.01 76 1023.7
20260830231621 77 110 3.5 3.5 0.00 0.01 0.01 71 1023.6